Vorticity
5 2 3 6 5 3 3 5 4 3 3 4 4 6 6 7 6 5 6 9 3 5 9 9 5 4 5 4 4 6 7 8 8 8 7 20 7 3 7 7 7 9 7
7 4 2 5 6 5 3 3 5 3 3 3 3 5 7 7 4 6 5 5 -1 -2 -0 15 4 4 4 5 5 7 7 8 8 7 6 4 8 6 4 4 4 6 6
3 3 6 4 5 5 4 3 4 4 3 3 3 4 7 6 6 4 4 1 7 18 10 1 4 4 4 4 5 7 7 7 7 7 8 7 5 6 5 8 -0 6 8
9 6 5 5 5 5 5 4 3 4 4 3 3 4 8 4 6 7 6 9 7 4 21 7 3 4 3 4 5 7 7 6 5 6 15 10 6 6 6 5 6 5 1
4 8 9 5 6 8 5 5 4 3 4 4 3 4 2 2 6 14 15 7 3 0 -7 1 3 4 4 4 5 7 6 5 4 6 6 6 5 5 5 6 6 7 5
2 2 6 12 3 9 8 5 3 3 3 4 4 5 1 5 5 5 5 7 2 -5 -0 4 4 4 4 4 5 7 6 5 5 6 6 6 5 6 6 6 6 6 7
3 3 0 2 6 5 9 5 4 3 3 3 3 4 3 4 8 14 1 4 7 9 7 5 5 5 5 5 5 7 6 5 5 5 6 6 7 5 6 7 7 8 7
3 3 5 4 2 5 4 9 5 4 3 2 3 3 5 3 8 1 3 6 5 7 7 6 5 5 5 5 6 8 6 5 5 6 6 7 6 6 6 6 12 11 7
9 7 6 7 5 3 -2 4 9 6 3 3 2 3 2 4 9 3 4 5 6 6 7 7 6 6 6 5 6 8 6 5 5 6 6 7 6 15 11 16 12 9 8
9 17 13 8 5 8 -2 7 0 8 8 4 3 2 3 3 6 3 4 6 6 6 6 6 7 7 6 6 7 8 7 5 5 7 6 7 19 7 2 6 6 7 6
8 7 9 17 12 8 7 5 1 -2 2 10 5 4 3 4 4 5 0 4 5 6 6 6 7 7 7 6 8 8 7 6 6 6 7 7 9 -3 4 5 5 5 6
5 5 6 5 7 14 14 6 6 8 3 2 5 9 3 4 3 5 3 -2 3 5 6 6 6 7 7 8 8 7 7 5 6 7 10 11 -3 1 3 4 4 5 6
7 7 6 5 6 6 6 12 11 7 4 8 -3 10 4 6 1 3 4 5 -0 4 6 7 6 6 7 8 8 8 6 5 5 7 8 6 5 1 5 4 5 5 5
5 5 5 6 6 8 7 5 8 12 7 3 7 0 2 6 10 10 4 2 5 3 3 6 7 6 7 8 9 7 7 5 5 7 10 17 -1 -0 4 5 5 5 5
15 9 7 6 7 6 7 9 5 5 15 10 0 9 -6 16 -3 3 2 7 5 3 1 4 6 6 7 8 8 8 7 5 5 7 6 4 -7 1 5 5 4 5 5
23 28 24 15 10 9 10 9 11 8 4 11 12 1 3 -18 5 47 -1 -2 9 4 5 4 6 6 6 7 9 7 7 5 6 7 11 -2 -2 -1 4 6 4 5 5
10 18 20 24 19 18 14 15 13 16 16 6 5 18 3 6 2 -6 -5 16 3 4 -3 2 5 6 7 8 9 8 6 5 6 6 12 13 2 4 4 4 5 5 5
10 13 16 17 12 12 14 14 14 12 15 23 9 5 15 15 7 9 -28 47 4 48 3 -3 4 7 5 6 8 9 7 6 6 6 7 -0 2 5 3 4 5 5 5
8 8 12 15 17 15 14 10 11 11 11 14 23 15 8 3 15 14 -9 -13 46 -1 13 24 -5 -1 6 6 8 8 7 6 6 6 6 6 7 5 4 5 5 6 5
8 6 7 7 5 4 4 7 14 13 11 12 11 18 18 14 9 11 20 -11 -9 35 3 -0 15 11 3 5 6 8 7 7 6 6 7 6 6 5 5 5 6 6 6
3 6 7 3 -1 2 2 -0 2 4 11 13 10 8 13 16 15 5 19 13 3 11 30 21 -15 15 8 10 5 6 6 6 6 7 7 7 6 6 6 5 5 5 6
-4 -2 2 -2 -2 1 0 4 3 2 2 7 13 13 11 12 12 15 13 19 25 6 -7 28 10 27 15 7 5 5 9 8 8 7 8 7 7 6 6 6 6 6 6
1 11 4 7 9 2 7 2 3 4 2 1 5 11 17 18 12 13 12 8 10 14 19 1 5 36 -6 4 5 5 8 6 8 8 8 9 8 7 6 7 7 7 7
2 -0 19 27 29 37 29 34 25 3 3 1 3 6 11 12 16 11 12 13 17 26 6 19 7 -1 2 40 -11 2 4 3 13 9 10 9 8 8 8 8 7 8 7
4 9 20 9 17 10 9 15 32 20 6 3 1 4 5 7 19 21 13 15 5 27 19 5 25 19 19 25 26 8 5 4 6 9 12 9 8 10 7 10 9 8 7
7 21 17 11 18 22 23 11 21 41 15 1 3 2 2 3 -3 9 22 20 1 1 -11 20 -17 6 7 22 8 32 -0 8 4 3 3 8 12 9 9 11 9 7 7
Height
3152 3153 3154 3154 3155 3156 3157 3158 3159 3159 3160 3162 3163 3163 3164 3165 3165 3165 3166 3167 3168 3168 3168 3168 3168 3169 3169 3169 3169 3169 3168 3168 3168 3168 3168 3168 3168 3169 3169 3170 3170 3171 3171
3151 3152 3153 3153 3154 3155 3156 3157 3158 3159 3160 3161 3162 3163 3164 3164 3165 3165 3166 3167 3168 3168 3168 3167 3167 3168 3169 3169 3169 3169 3168 3168 3168 3167 3167 3168 3168 3169 3169 3170 3171 3172 3172
3149 3151 3151 3152 3153 3155 3156 3157 3158 3158 3159 3160 3161 3162 3163 3163 3164 3165 3166 3166 3167 3167 3167 3167 3167 3168 3169 3169 3169 3168 3168 3167 3167 3167 3168 3168 3169 3169 3170 3170 3171 3172 3173
3148 3149 3149 3150 3152 3153 3154 3155 3157 3158 3158 3159 3160 3161 3161 3162 3163 3164 3165 3166 3166 3166 3166 3166 3167 3168 3168 3169 3168 3168 3167 3167 3167 3168 3168 3169 3169 3169 3170 3170 3171 3171 3172
3146 3148 3148 3149 3150 3151 3152 3154 3155 3156 3157 3158 3159 3160 3160 3161 3162 3162 3163 3165 3166 3166 3165 3165 3166 3167 3168 3168 3168 3167 3167 3167 3167 3168 3168 3169 3169 3169 3169 3169 3170 3171 3171
3146 3147 3147 3148 3149 3149 3150 3151 3153 3154 3155 3156 3157 3158 3159 3160 3161 3161 3162 3163 3164 3164 3164 3164 3164 3166 3167 3167 3167 3167 3167 3167 3167 3167 3168 3168 3168 3168 3168 3168 3169 3170 3171
3144 3145 3145 3146 3146 3147 3147 3148 3150 3151 3152 3154 3155 3157 3158 3158 3159 3160 3160 3161 3162 3162 3162 3163 3163 3164 3166 3166 3166 3166 3166 3166 3167 3167 3167 3166 3167 3167 3167 3167 3168 3169 3170
3140 3141 3141 3143 3144 3144 3144 3145 3147 3148 3149 3151 3153 3154 3155 3156 3157 3158 3159 3159 3159 3160 3161 3161 3162 3163 3164 3164 3165 3165 3165 3165 3166 3166 3166 3166 3166 3166 3167 3167 3168 3169 3170
3135 3136 3137 3138 3140 3141 3141 3141 3143 3144 3146 3147 3149 3151 3152 3153 3154 3155 3156 3156 3157 3157 3158 3159 3160 3161 3162 3163 3163 3163 3164 3164 3165 3165 3166 3165 3165 3165 3165 3167 3167 3168 3170
3129 3130 3131 3132 3134 3135 3137 3138 3139 3140 3141 3143 3146 3147 3148 3149 3151 3152 3153 3153 3154 3155 3156 3156 3157 3158 3159 3160 3161 3162 3163 3163 3163 3164 3165 3165 3165 3165 3164 3166 3166 3167 3168
3124 3124 3125 3127 3128 3129 3130 3132 3134 3135 3136 3138 3140 3142 3144 3145 3146 3148 3150 3150 3151 3152 3153 3154 3155 3156 3157 3157 3158 3159 3160 3162 3163 3162 3163 3164 3165 3163 3164 3165 3166 3166 3167
3120 3119 3119 3120 3121 3122 3124 3125 3127 3129 3130 3132 3135 3137 3138 3140 3142 3144 3144 3146 3147 3148 3149 3151 3152 3152 3153 3154 3155 3156 3157 3159 3161 3161 3161 3162 3162 3163 3164 3164 3165 3166 3166
3113 3114 3113 3113 3114 3116 3117 3117 3119 3121 3124 3127 3129 3130 3132 3134 3136 3138 3139 3141 3143 3144 3145 3147 3148 3148 3149 3150 3152 3153 3154 3156 3157 3159 3160 3161 3161 3162 3164 3164 3164 3165 3165
3105 3107 3107 3106 3106 3107 3108 3110 3111 3113 3116 3119 3121 3123 3125 3128 3130 3132 3133 3135 3135 3138 3141 3143 3144 3145 3146 3147 3148 3150 3151 3153 3154 3156 3158 3159 3159 3161 3162 3163 3163 3163 3164
3097 3097 3099 3097 3098 3098 3099 3101 3103 3105 3107 3110 3113 3115 3118 3120 3122 3124 3125 3127 3129 3131 3135 3138 3140 3141 3142 3143 3145 3147 3148 3149 3152 3153 3155 3158 3158 3159 3159 3160 3161 3162 3162
3090 3089 3089 3088 3088 3090 3091 3092 3095 3097 3099 3101 3104 3106 3109 3111 3113 3101 3111 3108 3122 3126 3128 3131 3134 3136 3138 3140 3141 3143 3145 3146 3148 3151 3153 3153 3155 3156 3157 3158 3158 3159 3159
3087 3084 3082 3082 3081 3081 3084 3086 3086 3088 3090 3093 3095 3097 3100 3104 3106 3106 3111 3101 3103 3118 3119 3125 3128 3130 3133 3137 3138 3140 3142 3142 3143 3147 3147 3148 3151 3152 3154 3154 3155 3156 3156
3083 3082 3079 3078 3077 3077 3077 3078 3080 3080 3081 3083 3086 3088 3090 3094 3098 3100 3101 3102 3105 3108 3113 3118 3122 3125 3127 3131 3134 3136 3137 3138 3140 3141 3144 3146 3147 3149 3150 3151 3151 3152 3153
3080 3079 3078 3076 3074 3073 3072 3072 3072 3073 3074 3075 3076 3079 3081 3085 3089 3091 3095 3098 3100 3107 3108 3112 3110 3120 3123 3126 3129 3131 3132 3132 3134 3137 3139 3141 3144 3145 3146 3147 3148 3149 3149
3077 3076 3075 3074 3072 3071 3069 3068 3067 3066 3067 3068 3069 3071 3072 3075 3080 3083 3088 3093 3097 3100 3102 3104 3105 3113 3117 3120 3124 3126 3127 3128 3129 3132 3134 3136 3138 3140 3142 3143 3144 3145 3145
3073 3072 3071 3069 3067 3065 3064 3063 3062 3061 3061 3061 3061 3062 3064 3067 3070 3073 3078 3084 3089 3092 3093 3098 3102 3106 3109 3115 3118 3119 3120 3122 3126 3128 3128 3131 3133 3135 3137 3138 3140 3140 3141
3067 3065 3063 3061 3059 3056 3054 3054 3053 3053 3053 3054 3055 3056 3057 3059 3061 3065 3069 3073 3078 3082 3086 3088 3095 3098 3101 3109 3110 3112 3113 3117 3120 3123 3125 3126 3128 3130 3131 3133 3135 3136 3136
3060 3056 3053 3049 3046 3043 3040 3039 3039 3040 3042 3045 3048 3050 3052 3052 3053 3056 3060 3065 3069 3074 3080 3083 3088 3093 3097 3100 3103 3105 3107 3110 3116 3117 3119 3122 3124 3126 3127 3129 3130 3132 3132
3049 3043 3037 3031 3026 3024 3022 3019 3020 3024 3030 3036 3040 3042 3044 3046 3047 3050 3053 3057 3061 3067 3072 3077 3084 3088 3092 3094 3097 3099 3101 3107 3109 3113 3115 3117 3120 3121 3123 3125 3125 3127 3128
3036 3029 3023 3018 3015 3012 3009 3007 3005 3008 3015 3023 3029 3033 3035 3039 3041 3044 3046 3050 3055 3059 3067 3072 3077 3082 3084 3088 3093 3098 3099 3102 3104 3107 3109 3113 3115 3116 3117 3120 3121 3121 3122
3025 3017 3012 3005 3000 2998 2996 2995 2993 2992 2999 3008 3015 3022 3027 3032 3035 3038 3041 3045 3050 3053 3061 3067 3070 3075 3077 3080 3083 3089 3096 3099 3101 3102 3104 3106 3109 3112 3112 3114 3117 3117 3117